Home   Weather   Río Gallegos   Past weeks

Flag for Argentina Past Weather in Río Gallegos, Santa Cruz, Argentina — Yesterday and Last 2 Weeks

Now
52 °F

Clear.


Feels Like: 49 °F
Forecast: 49 / 62 °F
Wind: 9 mph from Northwest

Location: Rio Gallegos Aerodrome

Current Time: Dec 3, 2016 at 4:11:29 am

Latest Report: Dec 3, 2016 at 3:00 am


Visibility: 10 mi

Pressure: 29.56 "Hg

Humidity: 82%

Dew Point: 46 °F

Location of Río GallegosLocation

Past Weather in Río Gallegos — Graph

°F

Río Gallegos Temperature Yesterday

Maximum temperature yesterday: 63 °F (at 2:00 pm)
Minimum temperature yesterday: 43 °F (at 5:00 am)
Average temperature yesterday: 53 °F

High & Low Weather Summary for the Past Weeks

 TemperatureHumidityPressure
High75 °F (Nov 22, 3:00 pm)94% (Nov 21, 7:00 pm)30.24 "Hg (Nov 21, 7:00 pm)
Low37 °F (Nov 20, 4:00 am)8% (Nov 30, 4:00 pm)29.09 "Hg (Dec 1, 11:00 am)
Average57 °F52%29.74 "Hg
* Reported Nov 18 3:00 am — Dec 3 3:00 am, Río Gallegos, Weather by CustomWeather, © 2016

Note: Actual official high and low records may vary slightly from our data, if they occured in-between our weather recording intervals... More about our weather records

Advertising

Río Gallegos Weather History for the Previous 24 Hours

Scroll right to see more
 ConditionsComfort  
Time TempWeatherWind HumidityBarometerVisibility
3:00 am
Sat, Dec 3
52 °FClear.9 mph82%29.56 "Hg10 mi
2:00 am52 °FClear.15 mph88%29.59 "Hg10 mi
1:00 am52 °FClear.24 mph88%29.59 "Hg10 mi
12:00 am52 °FClear.25 mph77%29.62 "Hg10 mi
11:00 pm
Fri, Dec 2
52 °FClear.26 mph77%29.65 "Hg10 mi
10:00 pm52 °FClear.30 mph67%29.68 "Hg10 mi
9:00 pm52 °FLight rain. Clear.26 mph54%29.71 "HgN/A
8:00 pm54 °FCool.N/A51%29.71 "HgN/A
7:00 pm55 °FSunny.24 mph44%29.74 "Hg10 mi
6:00 pm61 °FPassing clouds.21 mph31%29.74 "HgN/A
5:00 pm61 °FPassing clouds.20 mph31%29.74 "HgN/A
4:00 pm61 °FPassing clouds.17 mph31%29.74 "HgN/A
3:00 pm63 °FPartly sunny.17 mph30%29.77 "HgN/A
2:00 pm63 °FScattered clouds.6 mph27%29.80 "HgN/A
1:00 pm61 °FScattered clouds.9 mph25%29.80 "HgN/A
12:00 pm61 °FScattered clouds.14 mph25%29.83 "HgN/A
11:00 am57 °FScattered clouds.9 mph41%29.83 "HgN/A
10:00 am55 °FScattered clouds.15 mph38%29.86 "HgN/A
9:00 am54 °FScattered clouds.17 mph41%29.83 "HgN/A
8:00 am50 °FSunny.21 mph50%29.83 "Hg10 mi
7:00 am46 °FSunny.17 mph62%29.80 "Hg10 mi
6:00 am43 °FSunny.13 mph61%29.77 "Hg10 mi
5:00 am43 °FClear.21 mph57%29.74 "Hg10 mi
4:00 am45 °FClear.20 mph53%29.71 "Hg10 mi
Weather by CustomWeather, © 2016

See weather overviewHow to use our weather pages